Location: Unspecified
(0.0000°N, 0.0000°E)
Time: 11:18:04
(UTC+00:00)

Explorer 7 - All Passes

Search period start: 22 February 2017 00:00
Search period end: 04 March 2017 00:00
Orbit: 486 x 685 km, 50.3° (Epoch: 21 February)

Date Brightness Start Highest point End Pass type
(mag) Time Alt. Az. Time Alt. Az. Time Alt. Az.
22 Feb - 02:56:53 10° NNW 03:01:42 62° NE 03:06:19 10° SE visible
22 Feb - 15:00:15 10° SW 15:04:05 89° ESE 15:08:06 10° NE daylight
23 Feb - 01:26:06 10° NE 01:26:58 10° NE 01:27:50 10° ENE night (unlit)
23 Feb - 03:02:49 10° NW 03:07:38 62° SW 03:12:14 10° SSE night (unlit)
23 Feb - 15:06:28 10° WSW 15:10:02 37° NW 15:13:45 10° NNE daylight
24 Feb - 01:29:19 10° N 01:33:00 21° NE 01:36:37 10° E night (unlit)
24 Feb - 03:09:18 10° WNW 03:13:32 30° SW 03:17:38 10° S night (unlit)
24 Feb - 13:32:38 10° S 13:35:39 22° SE 13:38:43 10° ENE daylight
24 Feb - 15:13:29 10° W 15:16:01 17° NW 15:18:37 10° N daylight
25 Feb - 01:34:21 10° NNW 01:38:59 42° NE 01:43:29 10° ESE night (unlit)
25 Feb - 03:16:41 10° W 03:19:28 15° SW 03:22:13 10° SSW night (unlit)
25 Feb - 13:37:51 10° SSW 13:41:33 52° SE 13:45:21 10° NE daylight
26 Feb - 01:40:00 10° NW 01:44:55 87° NE 01:49:41 10° SE night (unlit)
26 Feb - 13:43:45 10° SW 13:47:27 60° NW 13:51:19 10° NNE daylight
27 Feb - 00:07:30 10° NNE 00:10:14 15° NE 00:12:57 10° E night (unlit)
27 Feb - 01:46:08 10° NW 01:50:49 45° SW 01:55:23 10° SSE night (unlit)
27 Feb - 12:11:00 10° SSE 12:13:04 14° SE 12:15:09 10° E daylight
27 Feb - 13:50:16 10° WSW 13:53:25 25° NW 13:56:39 10° N daylight
28 Feb - 00:11:59 10° N 00:16:14 29° NE 00:20:25 10° ESE night (unlit)
28 Feb - 01:52:54 10° WNW 01:56:44 23° SW 02:00:30 10° S night (unlit)
28 Feb - 12:15:38 10° S 12:19:00 31° SE 12:22:25 10° ENE daylight
28 Feb - 13:58:12 10° WNW 13:59:24 11° NW 14:00:37 10° NNW daylight
01 Mar - 00:17:19 10° NNW 00:22:09 58° NE 00:26:56 10° SE night (unlit)
01 Mar - 02:01:08 10° WSW 02:02:42 11° SW 02:04:15 10° SSW night (unlit)
01 Mar - 12:21:10 10° SW 12:24:54 81° SE 12:28:43 10° NE daylight
02 Mar - 00:23:10 10° NW 00:28:04 69° SW 00:32:54 10° SSE night (unlit)
02 Mar - 12:27:18 10° WSW 12:30:49 39° NW 12:34:24 10° NNE daylight
02 Mar - 22:49:52 10° N 22:53:27 20° NE 22:57:01 10° E night (unlit)
03 Mar - 00:29:33 10° WNW 00:33:59 33° SW 00:38:22 10° S night (unlit)
03 Mar - 10:53:36 10° S 10:56:25 20° SE 10:59:14 10° ENE daylight
03 Mar - 12:34:14 10° W 12:36:46 17° NW 12:39:19 10° N daylight
03 Mar - 22:54:48 10° NNW 22:59:23 39° NE 23:03:58 10° ESE night (unlit)
